This demonstration page uses our WeatherBlox Daily Observations layout. Learn more.

Left ArrowRight Arrow

40.92945, -100.16068

Hourly Observations for October 15, 2020

Temp ( °F °C ) Dew Point ( °F °C ) Humidity (%) Winds ( mph kmh ) Pressure ( in mb ) Visibility ( mi km ) Precip ( " mm )
12:15 am 00:15 Clear 51 10.3 35 1.7 56 56 NNW 12 19 30.1 1019 10 16.0934 0 0
12:35 am 00:35 Clear 50 10 35 1.6 56 56 NNW 10 17 30.1 1019 10 16.0934 0 0
12:55 am 00:55 Clear 49 9.7 35 1.4 57 57 NW 12 19 30.13 1020 10 16.0934 0 0
1:15 am 01:15 Clear 49 9.3 35 1.5 59 59 NW 12 19 30.13 1020 10 16.0934 0 0
1:35 am 01:35 Clear 48 9.1 35 1.7 60 60 NNW 14 22 30.12 1020 10 16.0934 0 0
1:55 am 01:55 Clear 48 8.7 36 2 63 63 NNW 14 22 30.13 1020 10 16.0934 0 0
2:15 am 02:15 Clear 47 8.5 36 2 64 64 NNW 14 22 30.15 1021 10 16.0934 0 0
2:35 am 02:35 Clear 47 8.1 36 2 66 66 NNW 13 20 30.16 1021 10 16.0934 0 0
2:55 am 02:55 Clear 46 7.5 36 2.2 69 69 NNW 14 22 30.17 1022 10 16.0934 0 0
3:15 am 03:15 Clear 44 6.9 35 1.9 71 71 NW 10 17 30.2 1023 10 16.0934 0 0
3:35 am 03:35 Clear 43 6 35 1.7 74 74 NW 12 19 30.21 1023 10 16.0934 0 0
3:55 am 03:55 Clear 42 5.5 35 1.6 76 76 NW 10 17 30.22 1023 10 16.0934 0 0
4:15 am 04:15 Clear 40 4.7 35 1.5 80 80 NW 9 15 30.23 1024 10 16.0934 0 0
4:35 am 04:35 Clear 40 4.5 35 1.5 81 81 NW 9 15 30.23 1024 10 16.0934 0 0
4:55 am 04:55 Clear 39 3.9 34 1.2 83 83 NW 7 11 30.24 1024 10 16.0934 0 0
5:15 am 05:15 Clear 38 3.3 34 1 85 85 NW 9 15 30.25 1025 10 16.0934 0 0
5:35 am 05:35 Clear 38 3.5 34 1.1 84 84 NW 9 15 30.26 1025 10 16.0934 0 0
5:55 am 05:55 Clear 37 2.9 33 0.8 86 86 NW 9 15 30.28 1025 10 16.0934 0 0
6:15 am 06:15 Clear 36 2.1 33 0.4 89 89 NW 8 13 30.3 1026 10 16.0934 0 0
6:35 am 06:35 Clear 35 1.5 32 0 90 90 NW 8 13 30.3 1026 10 16.0934 0 0
6:55 am 06:55 Clear 34 1.1 32 0 92 92 NW 8 13 30.31 1026 10 16.0934 0 0
7:15 am 07:15 Clear 36 2 32 0.2 88 88 NW 7 11 30.31 1026 10 16.0934 0 0
7:35 am 07:35 Clear 33 0.6 31 -0.5 92 92 WNW 6 9 30.33 1027 10 16.0934 0 0
7:55 am 07:55 Partly Cloudy 33 0.7 31 -0.4 92 92 WNW 7 11 30.33 1027 10 16.0934 0 0
8:15 am 08:15 Partly Cloudy 33 0.5 31 -0.6 92 92 WNW 8 13 30.34 1028 10 16.0934 0 0
8:35 am 08:35 Mostly Cloudy 36 2 32 0.1 87 87 W 7 11 30.33 1027 10 16.0934 0 0
8:55 am 08:55 Partly Cloudy 37 2.5 33 0.5 87 87 WNW 8 13 30.33 1027 10 16.0934 0 0
9:15 am 09:15 Sunny 38 3.3 34 0.9 84 84 WNW 10 17 30.34 1027 10 16.0934 0 0
9:35 am 09:35 Sunny 40 4.6 34 1.2 79 79 WNW 9 15 30.32 1027 10 16.0934 0 0
9:55 am 09:55 Sunny 42 5.4 34 1.3 75 75 WNW 9 15 30.32 1027 10 16.0934 0 0
10:15 am 10:15 Sunny 43 5.9 34 1 71 71 WNW 8 13 30.32 1027 10 16.0934 0 0
10:35 am 10:35 Sunny 44 6.5 32 0 64 64 NW 13 20 30.32 1027 10 16.0934 0 0
10:55 am 10:55 Sunny 45 7 31 -0.5 59 59 NNW 9 15 30.31 1026 10 16.0934 0 0
11:15 am 11:15 Sunny 45 7.4 32 -0.2 59 59 N 9 15 30.32 1027 10 16.0934 0 0
11:35 am 11:35 Sunny 47 8.1 30 -1.3 52 52 NNW 10 17 30.3 1026 10 16.0934 0 0
11:55 am 11:55 Partly Cloudy 47 8.3 30 -1 52 52 NW 7 11 30.3 1026 10 16.0934 0 0
12:15 pm 12:15 Mostly Cloudy 49 9.6 29 -1.6 46 46 N 10 17 30.28 1026 10 16.0934 0 0
12:35 pm 12:35 Partly Cloudy 50 10 28 -2.1 43 43 NNW 14 22 30.28 1025 10 16.0934 0 0
12:55 pm 12:55 Partly Cloudy 51 10.3 28 -2.3 42 42 NW 16 26 30.27 1025 10 16.0934 0 0
1:15 pm 13:15 Mostly Cloudy 53 11.5 27 -2.6 38 38 WNW 13 20 30.26 1025 10 16.0934 0 0
1:35 pm 13:35 Mostly Cloudy 52 11.3 26 -3.2 36 36 WNW 14 22 30.25 1024 10 16.0934 0 0
1:55 pm 13:55 Mostly Cloudy 52 11.3 26 -3.6 35 35 NNW 14 22 30.24 1024 10 16.0934 0 0
2:15 pm 14:15 Mostly Cloudy 53 11.6 26 -3.5 35 35 WNW 17 28 30.24 1024 10 16.0934 0 0
2:35 pm 14:35 Mostly Cloudy 53 11.5 26 -3.5 35 35 NNW 15 24 30.23 1024 10 16.0934 0 0
2:55 pm 14:55 Mostly Cloudy 53 11.7 26 -3.6 34 34 N 9 15 30.22 1023 10 16.0934 0 0
3:15 pm 15:15 Mostly Cloudy 53 11.9 25 -3.7 34 34 WNW 13 20 30.21 1023 10 16.0934 0 0
3:35 pm 15:35 Mostly Cloudy 55 12.6 25 -3.7 32 32 NW 12 19 30.2 1023 10 16.0934 0 0
3:55 pm 15:55 Cloudy 57 14 25 -3.8 29 29 N 9 15 30.18 1022 10 16.0934 0 0
4:15 pm 16:15 Mostly Cloudy 55 13 25 -4 31 31 N 10 17 30.19 1022 10 16.0934 0 0
4:35 pm 16:35 Mostly Cloudy 56 13.2 24 -4.3 30 30 WNW 10 17 30.19 1022 10 16.0934 0 0
4:55 pm 16:55 Mostly Cloudy 56 13.1 22 -5.4 27 27 NW 14 22 30.19 1022 10 16.0934 0 0
5:15 pm 17:15 Mostly Cloudy 55 12.7 22 -5.3 28 28 NNW 15 24 30.2 1023 10 16.0934 0 0
5:35 pm 17:35 Partly Cloudy 55 13 21 -6 26 26 NW 10 17 30.19 1022 10 16.0934 0 0
5:55 pm 17:55 Sunny 53 11.8 21 -6.3 28 28 NNW 10 17 30.21 1023 10 16.0934 0 0
6:15 pm 18:15 Sunny 53 11.5 22 -5.5 30 30 NNW 10 17 30.22 1023 10 16.0934 0 0
6:35 pm 18:35 Sunny 52 11 21 -6 30 30 NNW 9 15 30.23 1024 10 16.0934 0 0
6:55 pm 18:55 Sunny 50 10.2 20 -6.8 30 30 NW 7 11 30.25 1024 10 16.0934 0 0
7:15 pm 19:15 Clear 48 9.1 19 -7 32 32 NNW 7 11 30.27 1025 10 16.0934 0 0
7:35 pm 19:35 Clear 45 7 21 -6.1 39 39 NNW 5 7 30.29 1026 10 16.0934 0 0
7:55 pm 19:55 Clear 42 5.7 21 -6 43 43 NW 6 9 30.31 1026 7 11.26538 0 0
8:15 pm 20:15 Hazy 40 4.4 21 -6.1 47 47 Calm 30.33 1027 4 6.43736 0 0
8:35 pm 20:35 Hazy 39 3.7 21 -6 50 50 W 3 6 30.34 1027 4 6.43736 0 0
8:55 pm 20:55 Hazy 37 2.8 21 -5.9 53 53 W 6 9 30.36 1028 4 6.43736 0 0
9:15 pm 21:15 Clear 35 1.6 21 -6.3 56 56 W 7 11 30.38 1029 7 11.26538 0 0
9:35 pm 21:35 Clear 36 2 20 -6.5 54 54 WNW 7 11 30.39 1029 10 16.0934 0 0
9:55 pm 21:55 Clear 35 1.8 19 -7.1 52 52 W 9 15 30.4 1029 10 16.0934 0 0
10:15 pm 22:15 Clear 35 1.6 20 -6.7 54 54 W 8 13 30.41 1030 10 16.0934 0 0
10:35 pm 22:35 Clear 37 3 21 -6.1 52 52 WNW 10 17 30.4 1029 10 16.0934 0 0
10:55 pm 22:55 Clear 37 2.5 22 -5.6 56 56 WNW 9 15 30.41 1030 10 16.0934 0 0
11:15 pm 23:15 Clear 34 1.3 22 -5.6 60 60 NW 6 9 30.43 1030 10 16.0934 0 0
11:35 pm 23:35 Clear 32 0.1 21 -6 64 64 NW 6 9 30.45 1031 10 16.0934 0 0
11:55 pm 23:55 Clear 30 -0.9 21 -6.2 68 68 N 7 11 30.44 1031 10 16.0934 0 0

Powered by AerisWeather